Flag for Russia Weather past 2 weeks in Kemerovo, Russia

Now
5 °F

Clear.


Feels Like: -10 °F
Forecast: -5 / 3 °F
Wind: 10 mph from South

Location: Kemerovo

Current Time: Jan 30, 2015 at 1:36:59 AM

Latest Report: Jan 30, 2015 at 1:00 AM


Visibility: 10 mi

Pressure: 30.39 "Hg

Humidity: 66%

Dew point: -4 °F

Location of KemerovoLocation

Historic Weather in Kemerovo — Graph

°F

Kemerovo temperature yesterday

Maximum temperature yesterday: 14 °F (at 3:00 PM)
Minimum temperature yesterday: 7 °F (at 12:00 AM)
Average temperature yesterday: 11 °F

Past Weeks' High & Low Weather Summary

 TemperatureHumidityPressure
High28 °F (Jan 17, 11:00 AM)100% (Jan 15, 12:00 AM)30.95 "Hg (Jan 15, 12:00 AM)
Low-31 °F (Jan 26, 8:00 AM)57% (Jan 29, 3:00 PM)29.56 "Hg (Jan 21, 8:30 AM)
Average6 °F88%30.22 "Hg
* Reported Midnight between Jan 14 and Jan 15 — Jan 30 12:30 AM, Kemerovo, Weather by CustomWeather, © 2014

Note: Actual official high and low records may vary slightly from our data, if they occured in-between our weather recording intervals... More about our weather records

Advertising

Kemerovo weather history for previous 24 hours

 ConditionsComfort  
Time TempWeatherWind HumidityBarometerVisibility
12:30 AM
Jan 30
7 °FClear.10 mph66%30.39 "Hg10 mi
12:00 AM7 °FClear.10 mph66%30.39 "Hg10 mi
11:30 PM
Jan 29
9 °FClear.8 mph61%30.39 "Hg10 mi
11:00 PM9 °FClear.10 mph61%30.39 "Hg10 mi
10:30 PM9 °FClear.13 mph61%30.39 "Hg10 mi
10:00 PM9 °FClear.15 mph61%30.39 "Hg10 mi
9:30 PM12 °FClear.10 mph57%30.42 "Hg10 mi
9:00 PM12 °FClear.13 mph57%30.42 "Hg10 mi
8:30 PM12 °FClear.15 mph57%30.42 "Hg10 mi
8:00 PM12 °FClear.13 mph57%30.42 "Hg10 mi
7:30 PM12 °FLow level haze.15 mph57%30.42 "HgN/A
7:00 PM12 °FClear.13 mph57%30.42 "Hg10 mi
6:30 PM12 °FSunny.10 mph62%30.42 "Hg10 mi
6:00 PM12 °FSunny.10 mph62%30.42 "Hg10 mi
5:30 PM12 °FSunny.10 mph62%30.42 "Hg10 mi
5:00 PM12 °FSunny.13 mph62%30.42 "Hg10 mi
4:30 PM14 °FSunny.13 mph57%30.42 "Hg10 mi
4:00 PM14 °FSunny.13 mph57%30.42 "Hg10 mi
3:30 PM14 °FLow level haze.17 mph57%30.42 "HgN/A
3:00 PM14 °FSunny.13 mph57%30.42 "Hg10 mi
2:30 PM12 °FSunny.13 mph62%30.42 "Hg10 mi
2:00 PM12 °FSunny.13 mph67%30.42 "Hg10 mi
1:30 PM12 °FSunny.13 mph62%30.42 "Hg10 mi
1:00 PM12 °FSunny.13 mph67%30.42 "Hg10 mi
12:30 PM12 °FSunny.13 mph62%30.42 "Hg10 mi
12:00 PM12 °FSunny.13 mph62%30.42 "Hg10 mi
11:30 AM12 °FSunny.13 mph62%30.42 "Hg10 mi
11:00 AM12 °FSunny.13 mph62%30.42 "Hg10 mi
10:30 AM12 °FBroken clouds.10 mph62%30.42 "HgN/A
10:00 AM12 °FOvercast.10 mph62%30.42 "HgN/A
9:30 AM12 °FMostly cloudy.13 mph73%30.42 "HgN/A
9:00 AM12 °FMostly cloudy.10 mph73%30.39 "HgN/A
8:30 AM12 °FMostly cloudy.10 mph79%30.39 "HgN/A
8:00 AM12 °FOvercast.10 mph79%30.39 "HgN/A
7:30 AM10 °FOvercast.10 mph85%30.36 "HgN/A
7:00 AM10 °FOvercast.10 mph85%30.36 "HgN/A
6:30 AM10 °FOvercast.10 mph85%30.36 "HgN/A
6:00 AM10 °FOvercast.13 mph85%30.36 "HgN/A
5:30 AM10 °FOvercast.13 mph85%30.36 "HgN/A
5:00 AM10 °FOvercast.15 mph85%30.36 "HgN/A
4:30 AM10 °FSnow flurries. Overcast.13 mph92%30.36 "Hg4 mi
4:00 AM10 °FSnow flurries. Overcast.13 mph92%30.36 "Hg4 mi
3:30 AM10 °FSnow flurries. Overcast.13 mph92%30.36 "Hg4 mi
3:00 AM10 °FSnow flurries. Overcast.10 mph92%30.36 "Hg3 mi
2:30 AM9 °FSnow flurries. Overcast.13 mph92%30.36 "Hg2 mi
2:00 AM9 °FSnow flurries. Overcast.10 mph92%30.36 "Hg1 mi
1:30 AM9 °FSnow flurries. Overcast.10 mph85%30.36 "Hg4 mi
1:00 AM9 °FSnow flurries. Overcast.13 mph85%30.36 "Hg4 mi
Weather by CustomWeather, © 2014

See weather overviewHow to use our weather pages